When you browse on this site, cookies collect data to enhance your experience and personalize the content and advertising you see.
Visit our Privacy Policy to learn more. By continuing to use the site, you agree to this use of cookies and data.
  • In United Kingdom
  • List of Countries
  • For 7 days
  • Water Temperature
  • Satellite Maps
  • Weather Map
  • Weather Widgets
  • user-avatar
    Login

    Hourly Weather Kalgoorlie

    Today, 23 July, Tuesday

    Time Temperature Precipitation Wind Pressure Humidity
    00:00 +9°C° 0 mm 3 mps 734 mmHg 73%
    01:00 +8°C° 0 mm 3 mps 734 mmHg 74%
    02:00 +8°C° 0 mm 3 mps 734 mmHg 76%
    03:00 +8°C° 0 mm 3 mps 734 mmHg 77%
    04:00 +7°C° 0 mm 3 mps 734 mmHg 79%
    05:00 +7°C° 0 mm 2 mps 734 mmHg 80%
    06:00 +8°C° 0 mm 2 mps 734 mmHg 79%
    07:00 +8°C° 0 mm 3 mps 735 mmHg 78%
    08:00 +9°C° 0 mm 3 mps 735 mmHg 74%
    09:00 +10°C° 0 mm 3 mps 736 mmHg 67%
    10:00 +12°C° 0 mm 3 mps 736 mmHg 60%
    11:00 +14°C° 0 mm 3 mps 736 mmHg 54%
    12:00 +16°C° 0 mm 2 mps 736 mmHg 52%
    13:00 +16°C° 0 mm 2 mps 735 mmHg 49%
    14:00 +18°C° 0 mm 1 mps 734 mmHg 47%
    15:00 +18°C° 0 mm 1 mps 735 mmHg 51%
    16:00 +16°C° 0 mm 1 mps 735 mmHg 55%
    17:00 +15°C° 0 mm 0 mps 735 mmHg 58%
    18:00 +15°C° 0 mm 1 mps 735 mmHg 59%
    19:00 +15°C° 0 mm 1 mps 735 mmHg 60%
    20:00 +14°C° 0 mm 1 mps 736 mmHg 62%
    21:00 +13°C° 0 mm 1 mps 736 mmHg 63%
    22:00 +13°C° 0 mm 1 mps 736 mmHg 65%
    23:00 +12°C° 0 mm 1 mps 736 mmHg 67%

    Tomorrow, 24 July, Wednesday

    Time Temperature Precipitation Wind Pressure Humidity
    00:00 +12°C° 0 mm 1 mps 736 mmHg 68%
    01:00 +12°C° 0 mm 1 mps 736 mmHg 70%
    02:00 +11°C° 0 mm 1 mps 735 mmHg 71%
    03:00 +11°C° 0 mm 1 mps 735 mmHg 73%
    04:00 +11°C° 0 mm 1 mps 735 mmHg 74%
    05:00 +10°C° 0 mm 1 mps 735 mmHg 75%
    06:00 +10°C° 0 mm 2 mps 736 mmHg 72%
    07:00 +12°C° 0 mm 2 mps 736 mmHg 69%
    08:00 +13°C° 0 mm 2 mps 736 mmHg 66%
    09:00 +13°C° 0 mm 3 mps 736 mmHg 59%
    10:00 +16°C° 0 mm 3 mps 736 mmHg 52%
    11:00 +17°C° 0 mm 3 mps 736 mmHg 45%
    12:00 +18°C° 0 mm 3 mps 735 mmHg 41%
    13:00 +19°C° 0 mm 4 mps 734 mmHg 37%
    14:00 +20°C° 0 mm 4 mps 734 mmHg 33%
    15:00 +19°C° 0 mm 4 mps 734 mmHg 35%
    16:00 +19°C° 0 mm 3 mps 734 mmHg 37%
    17:00 +18°C° 0 mm 3 mps 734 mmHg 39%
    18:00 +17°C° 0 mm 3 mps 734 mmHg 41%
    19:00 +16°C° 0 mm 3 mps 734 mmHg 43%
    20:00 +15°C° 0 mm 2 mps 734 mmHg 45%
    21:00 +14°C° 0 mm 3 mps 734 mmHg 46%
    22:00 +13°C° 0 mm 3 mps 734 mmHg 47%
    23:00 +13°C° 0 mm 3 mps 734 mmHg 48%

    Day after tomorrow, 25 July, Thursday

    Time Temperature Precipitation Wind Pressure Humidity
    00:00 +12°C° 0 mm 3 mps 733 mmHg 51%
    01:00 +11°C° 0 mm 3 mps 733 mmHg 53%
    02:00 +11°C° 0 mm 3 mps 733 mmHg 56%
    03:00 +10°C° 0 mm 3 mps 733 mmHg 60%
    04:00 +10°C° 0 mm 2 mps 733 mmHg 65%
    05:00 +10°C° 0 mm 2 mps 733 mmHg 69%
    06:00 +10°C° 0 mm 3 mps 734 mmHg 70%
    07:00 +10°C° 0 mm 3 mps 734 mmHg 70%
    08:00 +11°C° 0 mm 3 mps 735 mmHg 71%
    09:00 +12°C° 0 mm 3 mps 735 mmHg 67%
    10:00 +14°C° 0 mm 4 mps 735 mmHg 63%
    11:00 +15°C° 0 mm 4 mps 735 mmHg 59%
    12:00 +15°C° 0 mm 4 mps 734 mmHg 56%
    13:00 +17°C° 0 mm 3 mps 734 mmHg 52%
    14:00 +17°C° 0 mm 3 mps 733 mmHg 49%
    15:00 +17°C° 0 mm 3 mps 734 mmHg 49%
    16:00 +16°C° 0 mm 3 mps 734 mmHg 49%
    17:00 +15°C° 0 mm 4 mps 734 mmHg 50%
    18:00 +14°C° 0 mm 5 mps 735 mmHg 58%
    19:00 +11°C° 0 mm 6 mps 735 mmHg 66%
    20:00 +10°C° 0 mm 7 mps 735 mmHg 74%
    21:00 +9°C° 0 mm 6 mps 736 mmHg 76%
    22:00 +9°C° 0 mm 6 mps 736 mmHg 79%
    23:00 +8°C° 0 mm 6 mps 736 mmHg 81%

    26 July, Friday

    Time Temperature Precipitation Wind Pressure Humidity
    00:00 +8°C° 0 mm 6 mps 736 mmHg 82%
    01:00 +7°C° 0 mm 5 mps 735 mmHg 84%
    02:00 +7°C° 0 mm 5 mps 735 mmHg 85%
    03:00 +7°C° 0 mm 5 mps 735 mmHg 85%
    04:00 +7°C° 0 mm 5 mps 735 mmHg 86%
    05:00 +7°C° 0 mm 5 mps 735 mmHg 86%
    06:00 +7°C° 0 mm 5 mps 735 mmHg 85%
    07:00 +7°C° 0 mm 5 mps 735 mmHg 84%
    08:00 +8°C° 0 mm 6 mps 735 mmHg 82%
    09:00 +9°C° 0 mm 6 mps 735 mmHg 78%
    10:00 +9°C° 0 mm 6 mps 735 mmHg 74%
    11:00 +10°C° 0 mm 6 mps 735 mmHg 70%
    12:00 +12°C° 0 mm 5 mps 734 mmHg 67%
    13:00 +13°C° 0 mm 4 mps 733 mmHg 64%
    14:00 +14°C° 0 mm 4 mps 733 mmHg 61%
    15:00 +14°C° 0 mm 3 mps 733 mmHg 60%
    16:00 +15°C° 0 mm 2 mps 733 mmHg 60%
    17:00 +15°C° 0 mm 1 mps 733 mmHg 60%
    18:00 +14°C° 0 mm 2 mps 733 mmHg 64%
    19:00 +12°C° 0 mm 3 mps 733 mmHg 67%
    20:00 +11°C° 0 mm 4 mps 733 mmHg 70%
    21:00 +11°C° 0 mm 4 mps 733 mmHg 72%
    22:00 +11°C° 0 mm 4 mps 732 mmHg 74%
    23:00 +10°C° 0 mm 4 mps 732 mmHg 76%

    27 July, Saturday

    Time Temperature Precipitation Wind Pressure Humidity
    00:00 +10°C° 0 mm 3 mps 732 mmHg 78%
    01:00 +10°C° 0 mm 3 mps 732 mmHg 80%
    02:00 +10°C° 0 mm 3 mps 731 mmHg 81%
    03:00 +10°C° 0 mm 3 mps 731 mmHg 83%
    04:00 +9°C° 0 mm 3 mps 731 mmHg 85%
    05:00 +9°C° 0 mm 3 mps 731 mmHg 87%
    06:00 +10°C° 0 mm 3 mps 731 mmHg 86%
    07:00 +10°C° 0 mm 3 mps 732 mmHg 84%
    08:00 +11°C° 0 mm 3 mps 732 mmHg 83%
    09:00 +12°C° 0 mm 3 mps 732 mmHg 75%
    10:00 +14°C° 0 mm 3 mps 732 mmHg 67%
    11:00 +17°C° 0 mm 3 mps 732 mmHg 59%
    12:00 +18°C° 0 mm 2 mps 731 mmHg 54%
    13:00 +18°C° 0 mm 2 mps 731 mmHg 49%
    14:00 +20°C° 0 mm 1 mps 730 mmHg 44%
    15:00 +20°C° 0 mm 1 mps 730 mmHg 46%
    16:00 +18°C° 0 mm 2 mps 730 mmHg 47%
    17:00 +18°C° 0 mm 2 mps 730 mmHg 49%
    18:00 +17°C° 0 mm 2 mps 731 mmHg 50%
    19:00 +16°C° 0 mm 3 mps 731 mmHg 52%
    20:00 +16°C° 0 mm 3 mps 732 mmHg 53%
    21:00 +14°C° 0 mm 4 mps 732 mmHg 57%
    22:00 +14°C° 0 mm 4 mps 732 mmHg 60%
    23:00 +13°C° 0 mm 4 mps 732 mmHg 63%

    28 July, Sunday

    Time Temperature Precipitation Wind Pressure Humidity
    00:00 +12°C° 0 mm 4 mps 732 mmHg 66%
    01:00 +12°C° 0 mm 4 mps 731 mmHg 68%
    02:00 +11°C° 0 mm 3 mps 731 mmHg 71%
    03:00 +11°C° 0.1 mm 3 mps 732 mmHg 73%
    04:00 +10°C° 0.1 mm 2 mps 732 mmHg 75%
    05:00 +10°C° 0.1 mm 2 mps 732 mmHg 78%
    06:00 +10°C° 0 mm 2 mps 732 mmHg 76%
    07:00 +12°C° 0 mm 2 mps 733 mmHg 74%
    08:00 +12°C° 0 mm 2 mps 733 mmHg 72%
    09:00 +14°C° 0 mm 2 mps 733 mmHg 67%
    10:00 +15°C° 0 mm 2 mps 733 mmHg 62%
    11:00 +17°C° 0 mm 2 mps 733 mmHg 57%
    12:00 +18°C° 0 mm 1 mps 733 mmHg 53%
    13:00 +19°C° 0 mm 1 mps 732 mmHg 49%
    14:00 +20°C° 0 mm 1 mps 732 mmHg 45%
    15:00 +20°C° 0 mm 1 mps 732 mmHg 46%
    16:00 +19°C° 0 mm 1 mps 732 mmHg 48%
    17:00 +18°C° 0 mm 2 mps 733 mmHg 49%
    18:00 +17°C° 0 mm 2 mps 733 mmHg 53%
    19:00 +16°C° 0 mm 3 mps 734 mmHg 57%
    20:00 +14°C° 0 mm 4 mps 734 mmHg 60%
    21:00 +14°C° 0 mm 4 mps 734 mmHg 64%
    22:00 +13°C° 0 mm 4 mps 734 mmHg 68%
    23:00 +12°C° 0 mm 5 mps 734 mmHg 72%
    Show more